EZY59WD EHAM-EGKK

Flight info

Callsign EZY59WD
Flight time N/A
Altitude 22000
Route IDRID L980 ABNED Z344 AMRIV Q63 ARREK Y4 TEBRA
Aircraft A320/M-SDE3FGHIRWY/LB1

Departure

Time 2026-05-04 16:02
Airport Amsterdam Airport Schiphol (EHAM)

Arrival

Time N/A
Airport London Gatwick Airport (EGKK)
Time Latitude Longitude Altitude Speed Heading
2026-05-04 15:31 52.31024 4.75465 -1 ft 0 kts 148°
2026-05-04 15:42 52.31025 4.75465 -1 ft 0 kts 147°
2026-05-04 15:42 52.31025 4.75464 -1 ft 0 kts 147°
2026-05-04 15:47 52.31026 4.75463 -1 ft 2 kts 147°
2026-05-04 15:47 52.31048 4.75442 -1 ft 4 kts 149°
2026-05-04 15:47 52.31062 4.75420 -1 ft 3 kts 86°
2026-05-04 15:47 52.31059 4.75394 -1 ft 1 kts 69°
2026-05-04 15:50 52.31073 4.75431 -1 ft 7 kts 53°
2026-05-04 15:51 52.31113 4.75493 -1 ft 10 kts 13°
2026-05-04 15:51 52.31183 4.75466 -1 ft 12 kts 353°
2026-05-04 15:51 52.31291 4.75452 -1 ft 19 kts 359°
2026-05-04 15:51 52.31424 4.75448 -1 ft 19 kts 355°
2026-05-04 15:52 52.31510 4.75369 -1 ft 9 kts 261°
2026-05-04 15:52 52.31506 4.75279 -1 ft 7 kts 270°
2026-05-04 15:52 52.31503 4.75173 -1 ft 14 kts 267°
2026-05-04 15:52 52.31498 4.75019 -1 ft 13 kts 266°
2026-05-04 15:53 52.31492 4.74828 -1 ft 24 kts 266°
2026-05-04 15:53 52.31481 4.74536 -1 ft 26 kts 266°
2026-05-04 15:53 52.31536 4.74295 -1 ft 24 kts 347°
2026-05-04 15:53 52.31708 4.74313 -1 ft 28 kts
2026-05-04 15:54 52.31900 4.74334 -1 ft 27 kts
2026-05-04 15:54 52.32034 4.74221 -1 ft 24 kts 262°
2026-05-04 15:54 52.32038 4.73967 -2 ft 23 kts 270°
2026-05-04 15:54 52.32049 4.73719 -1 ft 21 kts 274°
2026-05-04 15:55 52.32057 4.73477 -1 ft 21 kts 274°
2026-05-04 15:55 52.32131 4.73298 -1 ft 21 kts 318°
2026-05-04 15:55 52.32246 4.73136 -1 ft 22 kts 319°
2026-05-04 15:55 52.32368 4.72965 -1 ft 24 kts 319°
2026-05-04 15:56 52.32495 4.72788 -1 ft 25 kts 320°
2026-05-04 15:56 52.32629 4.72595 -1 ft 26 kts 319°
2026-05-04 15:56 52.32755 4.72383 -1 ft 27 kts 311°
2026-05-04 15:56 52.32840 4.72119 -1 ft 27 kts 271°
2026-05-04 15:57 52.32902 4.71848 -1 ft 28 kts 311°
2026-05-04 15:57 52.33051 4.71579 -1 ft 32 kts 310°
2026-05-04 15:57 52.33064 4.71403 -1 ft 15 kts 224°
2026-05-04 15:57 52.32973 4.71269 -1 ft 23 kts 222°
2026-05-04 15:58 52.32864 4.71083 -1 ft 18 kts 249°
2026-05-04 15:58 52.32862 4.71023 -2 ft 0 kts 274°
2026-05-04 15:59 52.32862 4.71021 -2 ft 2 kts 275°
2026-05-04 15:59 52.32874 4.70914 -2 ft 12 kts 299°
2026-05-04 15:59 52.32926 4.70901 -3 ft 0 kts
2026-05-04 16:01 52.32934 4.70902 -3 ft 7 kts
2026-05-04 16:01 52.33228 4.70927 -4 ft 77 kts
2026-05-04 16:01 52.33960 4.70998 -1 ft 132 kts
2026-05-04 16:01 52.35016 4.71088 198 ft 159 kts
2026-05-04 16:02 52.36107 4.71161 865 ft 158 kts
2026-05-04 16:02 52.37210 4.71259 1518 ft 163 kts
2026-05-04 16:02 52.39706 4.71528 2337 ft 199 kts
2026-05-04 16:03 52.41164 4.71658 2694 ft 219 kts
2026-05-04 16:03 52.42747 4.71349 3021 ft 242 kts 336°
2026-05-04 16:03 52.44182 4.69804 3585 ft 256 kts 316°
2026-05-04 16:03 52.45348 4.67574 4447 ft 259 kts 302°
2026-05-04 16:04 52.46198 4.64972 5345 ft 260 kts 289°
2026-05-04 16:04 52.46674 4.59041 7015 ft 268 kts 269°
2026-05-04 16:04 52.46447 4.56002 7816 ft 270 kts 252°
2026-05-04 16:05 52.45635 4.53211 8613 ft 274 kts 234°
2026-05-04 16:05 52.44460 4.50781 9439 ft 277 kts 232°
2026-05-04 16:05 52.42140 4.45468 10453 ft 306 kts 235°
2026-05-04 16:06 52.40886 4.42486 10654 ft 329 kts 235°
2026-05-04 16:06 52.37248 4.33978 12185 ft 350 kts 235°
2026-05-04 16:07 52.35337 4.29605 13152 ft 354 kts 236°
2026-05-04 16:07 52.30960 4.19647 15060 ft 364 kts 235°
2026-05-04 16:08 52.29471 4.16270 15674 ft 367 kts 235°
2026-05-04 16:08 52.24930 4.06000 17538 ft 376 kts 234°
2026-05-04 16:09 52.21855 3.99054 18674 ft 382 kts 234°
2026-05-04 16:09 52.18724 3.92019 19746 ft 387 kts 234°
2026-05-04 16:10 52.15522 3.84849 20795 ft 393 kts 234°
2026-05-04 16:11 52.10670 3.73991 22315 ft 399 kts 234°
2026-05-04 16:11 52.09021 3.70315 22807 ft 401 kts 235°
2026-05-04 16:12 52.04004 3.59158 22364 ft 413 kts 234°
2026-05-04 16:12 51.99004 3.48110 22017 ft 404 kts 234°
2026-05-04 16:13 51.95660 3.40727 22029 ft 405 kts 234°
2026-05-04 16:13 51.92323 3.33380 22020 ft 405 kts 234°
2026-05-04 16:14 51.88996 3.26087 22018 ft 405 kts 234°
2026-05-04 16:14 51.85635 3.18744 22011 ft 404 kts 235°
2026-05-04 16:15 51.81632 3.06745 22008 ft 404 kts 243°
2026-05-04 16:16 51.79077 2.98672 22008 ft 404 kts 243°
2026-05-04 16:16 51.75220 2.86568 22001 ft 403 kts 242°
2026-05-04 16:17 51.72650 2.78549 21999 ft 403 kts 242°
2026-05-04 16:18 51.69060 2.66303 22001 ft 404 kts 252°
2026-05-04 16:18 51.68430 2.61888 21998 ft 405 kts 260°
2026-05-04 16:19 51.67226 2.48412 22000 ft 405 kts 261°
2026-05-04 16:19 51.66417 2.39464 22003 ft 406 kts 260°
2026-05-04 16:20 51.65158 2.25896 22000 ft 408 kts 260°
2026-05-04 16:20 51.64310 2.16910 21998 ft 408 kts 260°
2026-05-04 16:21 51.63042 2.03352 21998 ft 408 kts 260°
2026-05-04 16:22 51.62214 1.94355 21999 ft 408 kts 260°
2026-05-04 16:22 51.59748 1.81467 21997 ft 404 kts 237°
2026-05-04 16:23 51.54377 1.71027 22002 ft 403 kts 227°
2026-05-04 16:24 51.47809 1.56555 22000 ft 406 kts 248°
2026-05-04 16:25 51.45875 1.48050 21999 ft 407 kts 248°
2026-05-04 16:26 51.39889 1.33254 22002 ft 402 kts 216°
2026-05-04 16:26 51.33148 1.25301 22002 ft 402 kts 216°
2026-05-04 16:27 51.28628 1.19962 21997 ft 403 kts 216°
2026-05-04 16:28 51.21881 1.12015 21331 ft 400 kts 216°
2026-05-04 16:28 51.15361 1.04377 20342 ft 375 kts 216°
2026-05-04 16:29 51.07271 0.94938 19076 ft 349 kts 217°
2026-05-04 16:30 51.03448 0.85506 18097 ft 336 kts 243°
2026-05-04 16:31 51.01474 0.78869 17395 ft 327 kts 243°
2026-05-04 16:31 50.98587 0.69231 16376 ft 319 kts 243°
2026-05-04 16:32 50.95741 0.59787 15383 ft 312 kts 244°
2026-05-04 16:33 50.93875 0.53624 14747 ft 308 kts 243°
2026-05-04 16:33 50.92051 0.47508 14116 ft 306 kts 249°
2026-05-04 16:34 50.91842 0.40936 13468 ft 305 kts 284°
2026-05-04 16:34 50.92435 0.37709 13127 ft 304 kts 285°
2026-05-04 16:35 50.94201 0.28121 12101 ft 299 kts 286°
2026-05-04 16:35 50.97615 0.19989 11124 ft 296 kts 307°
2026-05-04 16:36 50.98883 0.17403 10785 ft 295 kts 307°